Year,Month,Day,Hour,Minute,Value (Times are PST for temperature in C)
2008,08,26,00,00,11.10
2008,08,26,00,01,11.10
2008,08,26,00,02,11.10
2008,08,26,00,03,11.10
2008,08,26,00,04,11.10
2008,08,26,00,05,11.10
2008,08,26,00,06,11.00
2008,08,26,00,07,10.90
2008,08,26,00,08,10.90
2008,08,26,00,09,10.90
2008,08,26,00,10,10.90
2008,08,26,00,11,10.90
2008,08,26,00,12,10.90
2008,08,26,01,02,10.60
2008,08,26,01,03,10.60
2008,08,26,01,04,10.60
2008,08,26,01,05,10.60
2008,08,26,01,06,10.60
2008,08,26,01,07,10.60
2008,08,26,01,08,10.60
2008,08,26,01,09,10.60
2008,08,26,01,10,10.60
2008,08,26,01,11,10.60
2008,08,26,01,12,10.60
2008,08,26,01,13,10.60
2008,08,26,01,14,10.60
2008,08,26,01,15,10.60
2008,08,26,01,16,10.60
2008,08,26,01,17,10.60
2008,08,26,01,18,10.60
2008,08,26,01,19,10.60
2008,08,26,01,20,10.60
2008,08,26,01,21,10.60
2008,08,26,01,22,10.60
2008,08,26,01,23,10.60
2008,08,26,01,24,10.60
2008,08,26,01,25,10.60
2008,08,26,01,26,10.60
2008,08,26,01,27,10.60
2008,08,26,01,28,10.70
2008,08,26,01,29,10.70
2008,08,26,01,30,10.70
2008,08,26,01,31,10.70
2008,08,26,01,32,10.70
2008,08,26,01,33,10.70
2008,08,26,01,34,10.70
2008,08,26,01,35,10.70
2008,08,26,01,36,10.70
2008,08,26,01,37,10.70
2008,08,26,01,38,10.70
2008,08,26,01,39,10.70
2008,08,26,01,40,10.80
2008,08,26,01,41,10.80
2008,08,26,01,42,10.80
2008,08,26,01,43,10.80
2008,08,26,01,44,10.80
2008,08,26,01,45,10.80
2008,08,26,01,46,10.80
2008,08,26,01,47,10.80
2008,08,26,01,48,10.80
2008,08,26,01,49,10.80
2008,08,26,01,50,10.70
2008,08,26,01,51,10.70
2008,08,26,01,52,10.70
2008,08,26,01,53,10.70
2008,08,26,01,54,10.70
2008,08,26,01,55,10.70
2008,08,26,01,56,10.70
2008,08,26,01,57,10.70
2008,08,26,01,58,10.70
2008,08,26,01,59,10.70
2008,08,26,02,00,10.70
2008,08,26,02,01,10.70
2008,08,26,02,02,10.70
2008,08,26,02,03,10.70
2008,08,26,02,04,10.60
2008,08,26,02,05,10.60
2008,08,26,02,06,10.60
2008,08,26,02,07,10.60
2008,08,26,02,08,10.60
2008,08,26,02,09,10.60
2008,08,26,02,10,10.60
2008,08,26,02,11,10.60
2008,08,26,02,12,10.60
2008,08,26,02,13,10.60
2008,08,26,02,14,10.60
2008,08,26,02,15,10.60
2008,08,26,02,16,10.60
2008,08,26,02,17,10.60
2008,08,26,02,18,10.60
2008,08,26,02,19,10.60
2008,08,26,02,20,10.60
2008,08,26,02,21,10.60
2008,08,26,02,22,10.60
2008,08,26,02,23,10.60
2008,08,26,02,24,10.60
2008,08,26,02,25,10.60
2008,08,26,02,26,10.60
2008,08,26,02,27,10.60
2008,08,26,02,28,10.60
2008,08,26,02,29,10.60
2008,08,26,02,30,10.60
2008,08,26,02,31,10.60
2008,08,26,02,32,10.50
2008,08,26,02,33,10.40
2008,08,26,02,34,10.40
2008,08,26,02,35,10.40
2008,08,26,02,36,10.40
2008,08,26,02,37,10.40
2008,08,26,02,38,10.40
2008,08,26,02,39,10.40
2008,08,26,02,40,10.40
2008,08,26,02,41,10.40
2008,08,26,02,42,10.40
2008,08,26,02,43,10.40
2008,08,26,02,44,10.40
2008,08,26,02,45,10.40
2008,08,26,02,46,10.40
2008,08,26,02,47,10.40
2008,08,26,02,48,10.40
2008,08,26,02,49,10.40
2008,08,26,02,50,10.40
2008,08,26,02,51,10.30
2008,08,26,02,52,10.30
2008,08,26,02,53,10.30
2008,08,26,02,54,10.30
2008,08,26,02,55,10.20
2008,08,26,02,56,10.20
2008,08,26,02,57,10.20
2008,08,26,02,58,10.20
2008,08,26,02,59,10.20
2008,08,26,03,00,10.20
2008,08,26,03,01,10.20
2008,08,26,03,02,10.10
2008,08,26,03,03,10.10
2008,08,26,03,04,10.10
2008,08,26,03,05,10.10
2008,08,26,03,06,10.10
2008,08,26,03,07,10.10
2008,08,26,03,08,10.10
2008,08,26,03,09,10.10
2008,08,26,03,10,10.10
2008,08,26,03,11,10.10
2008,08,26,03,12,10.10
2008,08,26,03,13,10.10
2008,08,26,03,14,10.10
2008,08,26,03,15,10.10
2008,08,26,03,16,10.10
2008,08,26,03,17,10.10
2008,08,26,03,18,10.20
2008,08,26,03,19,10.20
2008,08,26,03,20,10.20
2008,08,26,03,21,10.20
2008,08,26,03,22,10.20
2008,08,26,03,23,10.20
2008,08,26,03,24,10.20
2008,08,26,03,25,10.30
2008,08,26,03,26,10.30
2008,08,26,03,27,10.30
2008,08,26,03,28,10.30
2008,08,26,03,29,10.30
2008,08,26,03,30,10.40
2008,08,26,03,31,10.40
2008,08,26,03,32,10.40
2008,08,26,03,33,10.40
2008,08,26,03,34,10.40
2008,08,26,03,35,10.40
2008,08,26,03,36,10.40
2008,08,26,03,37,10.30
2008,08,26,03,38,10.30
2008,08,26,03,39,10.30
2008,08,26,03,40,10.30
2008,08,26,03,41,10.30
2008,08,26,03,42,10.30
2008,08,26,03,43,10.40
2008,08,26,03,44,10.40
2008,08,26,03,45,10.40
2008,08,26,03,46,10.40
2008,08,26,03,47,10.40
2008,08,26,03,48,10.40
2008,08,26,03,49,10.30
2008,08,26,03,50,10.30
2008,08,26,03,51,10.30
2008,08,26,03,52,10.30
2008,08,26,03,53,10.30
2008,08,26,03,54,10.20
2008,08,26,03,55,10.20
2008,08,26,03,56,10.20
2008,08,26,03,57,10.20
2008,08,26,03,58,10.20
2008,08,26,03,59,10.20
2008,08,26,04,00,10.20
2008,08,26,04,01,10.10
2008,08,26,04,02,10.10
2008,08,26,04,03,10.10
2008,08,26,04,04,10.10
2008,08,26,04,05,10.10
2008,08,26,04,06,10.10
2008,08,26,04,07,10.10
2008,08,26,04,08,10.10
2008,08,26,04,09,10.10
2008,08,26,04,10,10.10
2008,08,26,04,11,10.10
2008,08,26,04,12,10.10
2008,08,26,04,13,10.10
2008,08,26,04,14,10.10
2008,08,26,04,15,10.10
2008,08,26,04,16,10.10
2008,08,26,04,17,10.10
2008,08,26,04,18,10.10
2008,08,26,04,19,10.10
2008,08,26,04,20,10.10
2008,08,26,04,21,10.10
2008,08,26,04,22,10.10
2008,08,26,04,23,10.10
2008,08,26,04,24,10.10
2008,08,26,04,25,10.20
2008,08,26,04,26,10.20
2008,08,26,04,27,10.20
2008,08,26,04,28,10.20
2008,08,26,04,29,10.20
2008,08,26,04,30,10.20
2008,08,26,04,31,10.20
2008,08,26,04,32,10.30
2008,08,26,04,33,10.30
2008,08,26,04,34,10.30
2008,08,26,04,35,10.30
2008,08,26,04,36,10.30
2008,08,26,04,37,10.30
2008,08,26,04,38,10.30
2008,08,26,04,39,10.30
2008,08,26,04,40,10.20
2008,08,26,04,41,10.20
2008,08,26,04,42,10.20
2008,08,26,04,43,10.20
2008,08,26,04,44,10.20
2008,08,26,04,45,10.20
2008,08,26,04,46,10.10
2008,08,26,04,47,10.10
2008,08,26,04,48,10.10
2008,08,26,04,49,10.10
2008,08,26,04,50,10.10
2008,08,26,04,51,10.10
2008,08,26,04,52,10.10
2008,08,26,04,53,10.10
2008,08,26,04,54,10.10
2008,08,26,04,55,10.10
2008,08,26,04,56,9.90
2008,08,26,04,57,9.90
2008,08,26,04,58,9.90
2008,08,26,04,59,9.90
2008,08,26,05,00,9.90
2008,08,26,05,01,9.90
2008,08,26,05,02,9.80
2008,08,26,05,03,9.80
2008,08,26,05,04,9.80
2008,08,26,05,05,9.80
2008,08,26,05,06,9.80
2008,08,26,05,07,9.80
2008,08,26,05,08,9.70
2008,08,26,05,09,9.70
2008,08,26,05,10,9.70
2008,08,26,05,11,9.70
2008,08,26,05,12,9.70
2008,08,26,05,13,9.70
2008,08,26,05,14,9.70
2008,08,26,05,15,9.70
2008,08,26,05,16,9.70
2008,08,26,05,17,9.70
2008,08,26,05,18,9.70
2008,08,26,05,19,9.70
2008,08,26,05,20,9.70
2008,08,26,05,21,9.70
2008,08,26,05,22,9.60
2008,08,26,05,23,9.60
2008,08,26,05,24,9.60
2008,08,26,05,25,9.60
2008,08,26,05,26,9.60
2008,08,26,05,27,9.60
2008,08,26,05,28,9.60
2008,08,26,05,29,9.60
2008,08,26,05,30,9.60
2008,08,26,05,31,9.60
2008,08,26,05,32,9.60
2008,08,26,05,33,9.50
2008,08,26,05,34,9.50
2008,08,26,05,35,9.50
2008,08,26,05,36,9.50
2008,08,26,05,37,9.50
2008,08,26,05,38,9.50
2008,08,26,05,39,9.50
2008,08,26,05,40,9.50
2008,08,26,05,41,9.50
2008,08,26,05,42,9.50
2008,08,26,05,43,9.50
2008,08,26,05,44,9.50
2008,08,26,05,45,9.50
2008,08,26,05,46,9.50
2008,08,26,05,47,9.40
2008,08,26,05,48,9.40
2008,08,26,05,49,9.40
2008,08,26,05,50,9.40
2008,08,26,05,51,9.40
2008,08,26,05,52,9.40
2008,08,26,05,53,9.40
2008,08,26,05,54,9.40
2008,08,26,05,55,9.30
2008,08,26,05,56,9.30
2008,08,26,05,57,9.30
2008,08,26,05,58,9.30
2008,08,26,05,59,9.20
2008,08,26,06,00,9.20
2008,08,26,06,01,9.20
2008,08,26,06,02,9.20
2008,08,26,06,03,9.20
2008,08,26,06,04,9.20
2008,08,26,06,05,9.20
2008,08,26,06,06,9.20
2008,08,26,06,07,9.20
2008,08,26,06,08,9.20
2008,08,26,06,09,9.20
2008,08,26,06,10,9.20
2008,08,26,06,11,9.10
2008,08,26,06,12,9.10
2008,08,26,06,13,9.10
2008,08,26,06,14,9.10
2008,08,26,06,15,9.10
2008,08,26,06,16,9.10
2008,08,26,06,17,9.10
2008,08,26,06,18,9.10
2008,08,26,06,19,9.10
2008,08,26,06,20,9.10
2008,08,26,06,21,9.00
2008,08,26,06,22,9.00
2008,08,26,06,23,9.00
2008,08,26,06,24,9.00
2008,08,26,06,25,9.00
2008,08,26,06,26,9.00
2008,08,26,06,27,9.00
2008,08,26,06,28,9.00
2008,08,26,06,29,9.00
2008,08,26,06,30,9.00
2008,08,26,06,31,9.00
2008,08,26,06,32,9.00
2008,08,26,06,33,9.00
2008,08,26,06,34,9.00
2008,08,26,06,35,9.00
2008,08,26,06,36,9.00
2008,08,26,06,37,9.00
2008,08,26,06,38,9.00
2008,08,26,06,39,9.00
2008,08,26,06,40,9.00
2008,08,26,06,41,9.00
2008,08,26,06,42,9.00
2008,08,26,06,43,9.00
2008,08,26,06,44,9.00
2008,08,26,06,45,8.90
2008,08,26,06,46,8.90
2008,08,26,06,47,8.90
2008,08,26,06,48,8.90
2008,08,26,06,49,8.90
2008,08,26,06,50,8.90
2008,08,26,06,51,8.90
2008,08,26,06,52,8.90
2008,08,26,06,53,8.90
2008,08,26,06,54,8.90
2008,08,26,06,55,9.00
2008,08,26,06,56,9.00
2008,08,26,06,57,9.00
2008,08,26,06,58,9.00
2008,08,26,06,59,9.10
2008,08,26,07,00,9.10
2008,08,26,07,01,9.10
2008,08,26,07,02,9.20
2008,08,26,07,03,9.20
2008,08,26,07,04,9.20
2008,08,26,07,05,9.20
2008,08,26,07,06,9.20
2008,08,26,07,07,9.30
2008,08,26,07,08,9.30
2008,08,26,07,09,9.30
2008,08,26,07,10,9.40
2008,08,26,07,11,9.40
2008,08,26,07,12,9.40
2008,08,26,07,13,9.40
2008,08,26,07,14,9.50
2008,08,26,07,15,9.50
2008,08,26,07,16,9.50
2008,08,26,07,17,9.50
2008,08,26,07,18,9.50
2008,08,26,07,19,9.50
2008,08,26,07,20,9.60
2008,08,26,07,21,9.60
2008,08,26,07,22,9.60
2008,08,26,07,23,9.60
2008,08,26,07,24,9.60
2008,08,26,07,25,9.60
2008,08,26,07,26,9.60
2008,08,26,07,27,9.60
2008,08,26,07,28,9.70
2008,08,26,07,29,9.70
2008,08,26,07,30,9.70
2008,08,26,07,31,9.70
2008,08,26,07,32,9.70
2008,08,26,07,33,9.70
2008,08,26,07,34,9.70
2008,08,26,07,35,9.70
2008,08,26,07,36,9.80
2008,08,26,07,37,9.80
2008,08,26,07,38,9.80
2008,08,26,07,39,9.90
2008,08,26,07,40,9.90
2008,08,26,07,41,9.90
2008,08,26,07,42,9.90
2008,08,26,07,43,9.90
2008,08,26,07,44,9.90
2008,08,26,07,45,9.90
2008,08,26,07,46,9.90
2008,08,26,07,47,9.90
2008,08,26,07,48,10.00
2008,08,26,07,49,10.10
2008,08,26,07,50,10.10
2008,08,26,07,51,10.10
2008,08,26,07,52,10.10
2008,08,26,07,53,10.20
2008,08,26,07,54,10.20
2008,08,26,07,55,10.30
2008,08,26,07,56,10.30
2008,08,26,07,57,10.40
2008,08,26,07,58,10.40
2008,08,26,07,59,10.40
2008,08,26,08,00,10.50
2008,08,26,08,01,10.60
2008,08,26,08,02,10.60
2008,08,26,08,03,10.60
2008,08,26,08,04,10.60
2008,08,26,08,05,10.60
2008,08,26,08,06,10.70
2008,08,26,08,07,10.70
2008,08,26,08,08,10.80
2008,08,26,08,09,10.80
2008,08,26,08,10,10.80
2008,08,26,08,11,10.90
2008,08,26,08,12,10.90
2008,08,26,08,13,10.90
2008,08,26,08,14,10.90
2008,08,26,08,15,11.00
2008,08,26,08,16,11.10
2008,08,26,08,17,11.10
2008,08,26,08,18,11.10
2008,08,26,08,19,11.10
2008,08,26,08,20,11.20
2008,08,26,08,21,11.20
2008,08,26,08,22,11.20
2008,08,26,08,23,11.30
2008,08,26,08,24,11.30
2008,08,26,08,25,11.40
2008,08,26,08,26,11.40
2008,08,26,08,27,11.50
2008,08,26,08,28,11.60
2008,08,26,08,29,11.60
2008,08,26,08,30,11.60
2008,08,26,08,31,11.70
2008,08,26,08,32,11.70
2008,08,26,08,33,11.80
2008,08,26,08,34,11.80
2008,08,26,08,35,11.80
2008,08,26,08,36,11.90
2008,08,26,08,37,11.90
2008,08,26,08,38,11.90
2008,08,26,08,39,12.00
2008,08,26,08,40,12.00
2008,08,26,08,41,12.00
2008,08,26,08,42,12.10
2008,08,26,08,43,12.10
2008,08,26,08,44,12.10
2008,08,26,08,45,12.10
2008,08,26,08,46,12.20
2008,08,26,08,47,12.20
2008,08,26,08,48,12.30
2008,08,26,08,49,12.40
2008,08,26,08,50,12.50
2008,08,26,08,51,12.50
2008,08,26,08,52,12.60
2008,08,26,08,53,12.60
2008,08,26,08,54,12.60
2008,08,26,08,55,12.60
2008,08,26,08,56,12.70
2008,08,26,08,57,12.70
2008,08,26,08,58,12.70
2008,08,26,08,59,12.80
2008,08,26,09,00,12.80
2008,08,26,09,01,12.90
2008,08,26,09,02,12.90
2008,08,26,09,03,13.00
2008,08,26,09,04,13.00
2008,08,26,09,05,13.10
2008,08,26,09,06,13.10
2008,08,26,09,07,13.20
2008,08,26,09,08,13.20
2008,08,26,09,09,13.30
2008,08,26,09,10,13.40
2008,08,26,09,11,13.50
2008,08,26,09,12,13.50
2008,08,26,09,13,13.60
2008,08,26,09,14,13.70
2008,08,26,09,15,13.70
2008,08,26,09,16,13.80
2008,08,26,09,17,13.80
2008,08,26,09,18,13.90
2008,08,26,09,19,13.90
2008,08,26,09,20,14.00
2008,08,26,09,21,14.00
2008,08,26,09,22,14.00
2008,08,26,09,23,14.10
2008,08,26,09,24,14.10
2008,08,26,09,25,14.10
2008,08,26,09,26,14.10
2008,08,26,09,27,14.10
2008,08,26,09,28,14.10
2008,08,26,09,29,14.20
2008,08,26,09,30,14.20
2008,08,26,09,31,14.20
2008,08,26,09,32,14.20
2008,08,26,09,33,14.10
2008,08,26,09,34,14.10
2008,08,26,09,35,14.00
2008,08,26,09,36,14.00
2008,08,26,09,37,14.00
2008,08,26,09,38,14.00
2008,08,26,09,39,14.00
2008,08,26,09,40,14.00
2008,08,26,09,41,14.00
2008,08,26,09,42,14.00
2008,08,26,09,43,14.00
2008,08,26,09,44,14.00
2008,08,26,09,45,14.00
2008,08,26,09,46,14.00
2008,08,26,09,47,14.00
2008,08,26,09,48,14.10
2008,08,26,09,49,14.20
2008,08,26,09,50,14.20
2008,08,26,09,51,14.30
2008,08,26,09,52,14.40
2008,08,26,09,53,14.50
2008,08,26,09,54,14.60
2008,08,26,09,55,14.60
2008,08,26,09,56,14.70
2008,08,26,09,57,14.80
2008,08,26,09,58,14.80
2008,08,26,09,59,14.90
2008,08,26,10,00,15.00
2008,08,26,10,01,15.00
2008,08,26,10,02,15.00
2008,08,26,10,03,15.10
2008,08,26,10,04,15.10
2008,08,26,10,05,15.20
2008,08,26,10,06,15.30
2008,08,26,10,07,15.30
2008,08,26,10,08,15.30
2008,08,26,10,09,15.40
2008,08,26,10,10,15.50
2008,08,26,10,11,15.50
2008,08,26,10,12,15.50
2008,08,26,10,13,15.60
2008,08,26,10,14,15.60
2008,08,26,10,15,15.70
2008,08,26,10,16,15.70
2008,08,26,10,17,15.80
2008,08,26,10,18,15.80
2008,08,26,10,19,15.80
2008,08,26,10,20,15.80
2008,08,26,10,21,15.90
2008,08,26,10,22,15.90
2008,08,26,10,23,16.00
2008,08,26,10,24,16.00
2008,08,26,10,25,16.10
2008,08,26,10,26,16.10
2008,08,26,10,27,16.10
2008,08,26,10,28,16.10
2008,08,26,10,29,16.10
2008,08,26,10,30,16.10
2008,08,26,10,31,16.10
2008,08,26,10,32,16.10
2008,08,26,10,33,16.10
2008,08,26,10,34,16.20
2008,08,26,10,35,16.20
2008,08,26,10,36,16.20
2008,08,26,10,37,16.30
2008,08,26,10,38,16.30
2008,08,26,10,39,16.40
2008,08,26,10,40,16.40
2008,08,26,10,41,16.40
2008,08,26,10,42,16.40
2008,08,26,10,43,16.40
2008,08,26,10,44,16.40
2008,08,26,10,45,16.50
2008,08,26,10,46,16.60
2008,08,26,10,47,16.60
2008,08,26,10,48,16.60
2008,08,26,10,49,16.70
2008,08,26,10,50,16.70
2008,08,26,10,51,16.70
2008,08,26,10,52,16.70
2008,08,26,10,53,16.70
2008,08,26,10,54,16.70
2008,08,26,10,55,16.70
2008,08,26,10,56,16.60
2008,08,26,10,57,16.60
2008,08,26,10,58,16.60
2008,08,26,10,59,16.60
2008,08,26,11,00,16.60
2008,08,26,11,01,16.50
2008,08,26,11,02,16.40
2008,08,26,11,03,16.40
2008,08,26,11,04,16.40
2008,08,26,11,05,16.40
2008,08,26,11,06,16.60
2008,08,26,11,07,16.60
2008,08,26,11,08,16.60
2008,08,26,11,09,16.70
2008,08,26,11,10,16.70
2008,08,26,11,11,16.70
2008,08,26,11,12,16.70
2008,08,26,11,13,16.60
2008,08,26,11,14,16.60
2008,08,26,11,15,16.60
2008,08,26,11,16,16.50
2008,08,26,11,17,16.40
2008,08,26,11,18,16.40
2008,08,26,11,19,16.40
2008,08,26,11,20,16.40
2008,08,26,11,21,16.40
2008,08,26,11,22,16.40
2008,08,26,11,23,16.40
2008,08,26,11,24,16.30
2008,08,26,11,25,16.30
2008,08,26,11,26,16.40
2008,08,26,11,27,16.40
2008,08,26,11,28,16.40
2008,08,26,11,29,16.40
2008,08,26,11,30,16.40
2008,08,26,11,31,16.40
2008,08,26,11,32,16.40
2008,08,26,11,33,16.40
2008,08,26,11,34,16.40
2008,08,26,11,35,16.40
2008,08,26,11,36,16.40
2008,08,26,11,37,16.40
2008,08,26,11,38,16.50
2008,08,26,11,39,16.60
2008,08,26,11,40,16.60
2008,08,26,11,41,16.60
2008,08,26,11,42,16.60
2008,08,26,11,43,16.60
2008,08,26,11,44,16.60
2008,08,26,11,45,16.60
2008,08,26,11,46,16.60
2008,08,26,11,47,16.60
2008,08,26,11,48,16.60
2008,08,26,11,49,16.60
2008,08,26,11,50,16.60
2008,08,26,11,51,16.60
2008,08,26,11,52,16.60
2008,08,26,11,53,16.60
2008,08,26,11,54,16.60
2008,08,26,11,55,16.60
2008,08,26,11,56,16.60
2008,08,26,11,57,16.70
2008,08,26,11,58,16.70
2008,08,26,11,59,16.70
2008,08,26,12,00,16.70
2008,08,26,12,01,16.70
2008,08,26,12,02,16.60
2008,08,26,12,03,16.60
2008,08,26,12,04,16.60
2008,08,26,12,05,16.60
2008,08,26,12,06,16.60
2008,08,26,12,07,16.40
2008,08,26,12,08,16.40
2008,08,26,12,09,16.40
2008,08,26,12,10,16.40
2008,08,26,12,11,16.30
2008,08,26,12,12,16.30
2008,08,26,12,13,16.30
2008,08,26,12,14,16.30
2008,08,26,12,15,16.30
2008,08,26,12,16,16.30
2008,08,26,12,17,16.30
2008,08,26,12,18,16.20
2008,08,26,12,19,16.20
2008,08,26,12,20,16.20
2008,08,26,12,21,16.20
2008,08,26,12,22,16.20
2008,08,26,12,23,16.20
2008,08,26,12,24,16.20
2008,08,26,12,25,16.20
2008,08,26,12,26,16.30
2008,08,26,12,27,16.30
2008,08,26,12,28,16.30
2008,08,26,12,29,16.40
2008,08,26,12,30,16.40
2008,08,26,12,31,16.50
2008,08,26,12,32,16.60
2008,08,26,12,33,16.60
2008,08,26,12,34,16.60
2008,08,26,12,35,16.60
2008,08,26,12,36,16.70
2008,08,26,12,37,16.70
2008,08,26,12,38,16.70
2008,08,26,12,39,16.70
2008,08,26,12,40,16.70
2008,08,26,12,41,16.70
2008,08,26,12,42,16.70
2008,08,26,12,43,16.70
2008,08,26,12,44,16.70
2008,08,26,12,45,16.70
2008,08,26,12,46,16.70
2008,08,26,12,47,16.70
2008,08,26,12,48,16.70
2008,08,26,12,49,16.80
2008,08,26,12,50,16.80
2008,08,26,12,51,16.80
2008,08,26,12,52,16.80
2008,08,26,12,53,16.80
2008,08,26,12,54,16.80
2008,08,26,12,55,16.80
2008,08,26,12,56,16.80
2008,08,26,12,57,16.80
2008,08,26,12,58,16.80
2008,08,26,12,59,16.80
2008,08,26,13,00,16.80
2008,08,26,13,01,16.80
2008,08,26,13,02,16.80
2008,08,26,13,03,16.70
2008,08,26,13,04,16.70
2008,08,26,13,05,16.70
2008,08,26,13,06,16.70
2008,08,26,13,07,16.70
2008,08,26,13,08,16.70
2008,08,26,13,09,16.70
2008,08,26,13,10,16.70
2008,08,26,13,11,16.70
2008,08,26,13,12,16.70
2008,08,26,13,13,16.70
2008,08,26,13,14,16.70
2008,08,26,13,15,16.80
2008,08,26,13,16,16.80
2008,08,26,13,17,16.80
2008,08,26,13,18,16.90
2008,08,26,13,19,16.90
2008,08,26,13,20,16.90
2008,08,26,13,21,17.00
2008,08,26,13,22,17.00
2008,08,26,13,23,17.00
2008,08,26,13,24,17.00
2008,08,26,13,25,17.00
2008,08,26,13,26,17.00
2008,08,26,13,27,17.00
2008,08,26,13,28,16.90
2008,08,26,13,29,16.90
2008,08,26,13,30,16.90
2008,08,26,13,31,16.90
2008,08,26,13,32,16.90
2008,08,26,13,33,16.90
2008,08,26,13,34,16.90
2008,08,26,13,35,16.80
2008,08,26,13,36,16.80
2008,08,26,13,37,16.80
2008,08,26,13,38,16.80
2008,08,26,13,39,16.80
2008,08,26,13,40,16.80
2008,08,26,13,41,16.80
2008,08,26,13,42,16.80
2008,08,26,13,43,16.80
2008,08,26,13,44,16.90
2008,08,26,13,45,16.90
2008,08,26,13,46,16.90
2008,08,26,13,47,16.90
2008,08,26,13,48,17.00
2008,08,26,13,49,17.00
2008,08,26,13,50,17.10
2008,08,26,13,51,17.10
2008,08,26,13,52,17.20
2008,08,26,13,53,17.20
2008,08,26,13,54,17.20
2008,08,26,13,55,17.30
2008,08,26,13,56,17.30
2008,08,26,13,57,17.30
2008,08,26,13,58,17.30
2008,08,26,13,59,17.20
2008,08,26,14,00,17.20
2008,08,26,14,01,17.20
2008,08,26,14,02,17.20
2008,08,26,14,03,17.20
2008,08,26,14,04,17.20
2008,08,26,14,05,17.20
2008,08,26,14,06,17.20
2008,08,26,14,07,17.20
2008,08,26,14,08,17.20
2008,08,26,14,09,17.20
2008,08,26,14,10,17.30
2008,08,26,14,11,17.30
2008,08,26,14,12,17.30
2008,08,26,14,13,17.30
2008,08,26,14,14,17.40
2008,08,26,14,15,17.40
2008,08,26,14,16,17.40
2008,08,26,14,17,17.50
2008,08,26,14,18,17.50
2008,08,26,14,19,17.50
2008,08,26,14,20,17.60
2008,08,26,14,21,17.60
2008,08,26,14,22,17.60
2008,08,26,14,23,17.70
2008,08,26,14,24,17.70
2008,08,26,14,25,17.70
2008,08,26,14,26,17.70
2008,08,26,14,27,17.80
2008,08,26,14,28,17.80
2008,08,26,14,29,17.80
2008,08,26,14,30,17.80
2008,08,26,14,31,17.80
2008,08,26,14,32,17.80
2008,08,26,14,33,17.80
2008,08,26,14,34,17.80
2008,08,26,14,35,17.80
2008,08,26,14,36,17.80
2008,08,26,14,37,17.70
2008,08,26,14,38,17.70
2008,08,26,14,39,17.70
2008,08,26,14,40,17.70
2008,08,26,14,41,17.70
2008,08,26,14,42,17.70
2008,08,26,14,43,17.70
2008,08,26,14,44,17.60
2008,08,26,14,45,17.60
2008,08,26,14,46,17.60
2008,08,26,14,47,17.60
2008,08,26,14,48,17.50
2008,08,26,14,49,17.50
2008,08,26,14,50,17.40
2008,08,26,14,51,17.40
2008,08,26,14,52,17.30
2008,08,26,14,53,17.30
2008,08,26,14,54,17.30
2008,08,26,14,55,17.30
2008,08,26,14,56,17.20
2008,08,26,14,57,17.20
2008,08,26,14,58,17.20
2008,08,26,14,59,17.20
2008,08,26,15,00,17.20
2008,08,26,15,01,17.20
2008,08,26,15,02,17.20
2008,08,26,15,03,17.30
2008,08,26,15,04,17.30
2008,08,26,15,05,17.30
2008,08,26,15,06,17.30
2008,08,26,15,07,17.30
2008,08,26,15,08,17.30
2008,08,26,15,09,17.30
2008,08,26,15,10,17.30
2008,08,26,15,11,17.30
2008,08,26,15,12,17.40
2008,08,26,15,13,17.40
2008,08,26,15,14,17.40
2008,08,26,15,15,17.40
2008,08,26,15,16,17.40
2008,08,26,15,17,17.40
2008,08,26,15,18,17.40
2008,08,26,15,19,17.40
2008,08,26,15,20,17.40
2008,08,26,15,21,17.40
2008,08,26,15,22,17.40
2008,08,26,15,23,17.40
2008,08,26,15,24,17.40
2008,08,26,15,25,17.30
2008,08,26,15,26,17.30
2008,08,26,15,27,17.30
2008,08,26,15,28,17.30
2008,08,26,15,29,17.30
2008,08,26,15,30,17.30
2008,08,26,15,31,17.30
2008,08,26,15,32,17.30
2008,08,26,15,33,17.30
2008,08,26,15,34,17.30
2008,08,26,15,35,17.30
2008,08,26,15,36,17.30
2008,08,26,15,37,17.30
2008,08,26,15,38,17.30
2008,08,26,15,39,17.30
2008,08,26,15,40,17.30
2008,08,26,15,41,17.30
2008,08,26,15,42,17.30
2008,08,26,15,43,17.30
2008,08,26,15,44,17.30
2008,08,26,15,45,17.30
2008,08,26,15,46,17.20
2008,08,26,15,47,17.20
2008,08,26,15,48,17.20
2008,08,26,15,49,17.20
2008,08,26,15,50,17.20
2008,08,26,15,51,17.20
2008,08,26,15,52,17.20
2008,08,26,15,53,17.20
2008,08,26,15,54,17.20
2008,08,26,15,55,17.20
2008,08,26,15,56,17.20
2008,08,26,15,57,17.10
2008,08,26,15,58,17.10
2008,08,26,15,59,17.10
2008,08,26,16,00,17.10
2008,08,26,16,01,17.00
2008,08,26,16,02,17.00
2008,08,26,16,03,17.00
2008,08,26,16,04,16.90
2008,08,26,16,05,16.90
2008,08,26,16,06,16.80
2008,08,26,16,07,16.80
2008,08,26,16,08,16.80
2008,08,26,16,09,16.80
2008,08,26,16,10,16.80
2008,08,26,16,11,16.70
2008,08,26,16,12,16.70
2008,08,26,16,13,16.70
2008,08,26,16,14,16.70
2008,08,26,16,15,16.70
2008,08,26,16,16,16.50
2008,08,26,16,17,16.40
2008,08,26,16,18,16.40
2008,08,26,16,19,16.40
2008,08,26,16,20,16.30
2008,08,26,16,21,16.30
2008,08,26,16,22,16.20
2008,08,26,16,23,16.20
2008,08,26,16,24,16.10
2008,08,26,16,25,16.10
2008,08,26,16,26,16.10
2008,08,26,16,27,16.10
2008,08,26,16,28,16.00
2008,08,26,16,29,15.90
2008,08,26,16,30,15.90
2008,08,26,16,31,15.80
2008,08,26,16,32,15.80
2008,08,26,16,33,15.80
2008,08,26,16,34,15.80
2008,08,26,16,35,15.80
2008,08,26,16,36,15.70
2008,08,26,16,37,15.70
2008,08,26,16,38,15.70
2008,08,26,16,39,15.60
2008,08,26,16,40,15.60
2008,08,26,16,41,15.60
2008,08,26,16,42,15.50
2008,08,26,16,43,15.50
2008,08,26,16,44,15.50
2008,08,26,16,45,15.50
2008,08,26,16,46,15.50
2008,08,26,16,47,15.50
2008,08,26,16,48,15.50
2008,08,26,16,49,15.40
2008,08,26,16,50,15.40
2008,08,26,16,51,15.30
2008,08,26,16,52,15.30
2008,08,26,16,53,15.30
2008,08,26,16,54,15.30
2008,08,26,16,55,15.30
2008,08,26,16,56,15.30
2008,08,26,16,57,15.20
2008,08,26,16,58,15.20
2008,08,26,16,59,15.20
2008,08,26,17,00,15.10
2008,08,26,17,01,15.10
2008,08,26,17,02,15.10
2008,08,26,17,03,15.00
2008,08,26,17,04,15.00
2008,08,26,17,05,15.00
2008,08,26,17,06,15.00
2008,08,26,17,07,14.90
2008,08,26,17,08,14.90
2008,08,26,17,09,14.80
2008,08,26,17,10,14.80
2008,08,26,17,11,14.80
2008,08,26,17,12,14.80
2008,08,26,17,13,14.80
2008,08,26,17,14,14.80
2008,08,26,17,15,14.80
2008,08,26,17,16,14.80
2008,08,26,17,17,14.80
2008,08,26,17,18,14.80
2008,08,26,17,19,14.80
2008,08,26,17,20,14.80
2008,08,26,17,21,14.80
2008,08,26,17,22,14.80
2008,08,26,17,23,14.80
2008,08,26,17,24,14.80
2008,08,26,17,25,14.80
2008,08,26,17,26,14.80
2008,08,26,17,27,14.80
2008,08,26,17,28,14.80
2008,08,26,17,29,14.80
2008,08,26,17,30,14.80
2008,08,26,17,31,14.80
2008,08,26,17,32,14.80
2008,08,26,17,33,14.80
2008,08,26,17,34,14.80
2008,08,26,17,35,14.80
2008,08,26,17,36,14.80
2008,08,26,17,37,14.80
2008,08,26,17,38,14.80
2008,08,26,17,39,14.80
2008,08,26,17,40,14.80
2008,08,26,17,41,14.80
2008,08,26,17,42,14.80
2008,08,26,17,43,14.80
2008,08,26,17,44,14.80
2008,08,26,17,45,14.80
2008,08,26,17,46,14.80
2008,08,26,17,47,14.80
2008,08,26,17,48,14.80
2008,08,26,17,49,14.80
2008,08,26,17,50,14.80
2008,08,26,17,51,14.80
2008,08,26,17,52,14.80
2008,08,26,17,53,14.80
2008,08,26,17,54,14.80
2008,08,26,17,55,14.80
2008,08,26,17,56,14.80
2008,08,26,17,57,14.80
2008,08,26,17,58,14.80
2008,08,26,17,59,14.80
2008,08,26,18,00,14.80
2008,08,26,18,01,14.80
2008,08,26,18,02,14.80
2008,08,26,18,03,14.80
2008,08,26,18,04,14.80
2008,08,26,18,05,14.80
2008,08,26,18,06,14.80
2008,08,26,18,07,14.80
2008,08,26,18,08,14.80
2008,08,26,18,09,14.80
2008,08,26,18,10,14.80
2008,08,26,18,11,14.80
2008,08,26,18,12,14.80
2008,08,26,18,13,14.90
2008,08,26,18,14,14.90
2008,08,26,18,15,14.90